TimePST,TemperatureF,Dew PointF,Humidity,Sea Level PressureIn,VisibilityMPH,Wind Direction,Wind SpeedMPH,Gust SpeedMPH,PrecipitationIn,Events,Conditions,WindDirDegrees,DateUTC
12:56 AM,51.1,33.1,50,30.03,10.0,West,3.5,-,N/A,,Clear,260,2013-02-04 08:56:00
2:56 AM,48.0,32.0,54,30.02,10.0,SSW,8.1,-,N/A,,Clear,210,2013-02-04 10:56:00
3:56 AM,46.0,32.0,58,30.03,10.0,SW,8.1,-,N/A,,Clear,220,2013-02-04 11:56:00
4:56 AM,48.9,30.9,50,30.03,10.0,West,5.8,-,N/A,,Clear,260,2013-02-04 12:56:00
5:56 AM,48.9,28.0,44,30.04,10.0,South,4.6,-,N/A,,Clear,190,2013-02-04 13:56:00
6:56 AM,46.0,30.9,56,30.06,10.0,SSW,10.4,-,N/A,,Clear,200,2013-02-04 14:56:00
7:56 AM,50.0,30.9,48,30.08,10.0,SW,3.5,-,N/A,,Clear,230,2013-02-04 15:56:00
8:56 AM,55.0,27.0,34,30.09,10.0,SW,3.5,-,N/A,,Clear,220,2013-02-04 16:56:00
9:56 AM,59.0,24.1,26,30.10,10.0,South,3.5,-,N/A,,Clear,170,2013-02-04 17:56:00
10:56 AM,61.0,23.0,23,30.09,10.0,ESE,3.5,-,N/A,,Clear,120,2013-02-04 18:56:00
11:56 AM,62.1,23.0,22,30.05,10.0,Calm,Calm,-,N/A,,Clear,0,2013-02-04 19:56:00
12:56 PM,64.9,23.0,20,30.01,10.0,SSW,4.6,-,N/A,,Clear,210,2013-02-04 20:56:00
1:56 PM,66.9,21.9,18,29.98,10.0,South,3.5,-,N/A,,Clear,170,2013-02-04 21:56:00
2:56 PM,66.9,21.9,18,29.97,10.0,South,4.6,-,N/A,,Clear,190,2013-02-04 22:56:00
3:56 PM,68.0,21.9,17,29.96,10.0,South,3.5,-,N/A,,Clear,180,2013-02-04 23:56:00
4:56 PM,66.2,23.0,19,29.98,10.0,South,6.9,-,N/A,,Clear,190,2013-02-05 00:56:00
5:56 PM,64.0,24.1,22,29.96,10.0,SSW,6.9,-,N/A,,Clear,200,2013-02-05 01:56:00
6:56 PM,60.1,26.1,27,29.98,10.0,SSW,8.1,-,N/A,,Clear,210,2013-02-05 02:56:00
7:56 PM,57.9,28.0,32,29.98,10.0,SW,6.9,-,N/A,,Clear,220,2013-02-05 03:56:00
8:56 PM,55.9,28.0,34,29.98,10.0,SSW,4.6,-,N/A,,Clear,210,2013-02-05 04:56:00
9:56 PM,53.1,28.0,38,29.98,10.0,SSW,10.4,-,N/A,,Clear,200,2013-02-05 05:56:00
10:56 PM,51.1,28.0,41,29.98,10.0,SW,5.8,-,N/A,,Clear,220,2013-02-05 06:56:00
11:56 PM,50.0,28.9,44,29.99,10.0,SW,6.9,-,N/A,,Clear,230,2013-02-05 07:56:00